Language: 


Des rapports , des résumés tant et plus, au choix de chacun....


Données statistiques de la station
Quotidien Rapport Janvier 7, 2018 Unités:  Métrique    Anglais   les deux
« Précédent Jour
Suivant Jour »
Quotidien Hebdomadaire Mensuel Annuel Actuel
  Haut: Bas: Moyen:
Température: -17.8 °C -16.7 °C -15.9 °C
Pt de rosée: -17.8 °C -17.8 °C -16.6 °C
Humidité: Humidity % 83 % 89 %
Vitesse du vent: 0 km/h 15.6 km/h 31.4 km/h
Rafales: 0 km/h - -
Vent:- - NE
Pression: 0 hPa 34371.3 hPa -
Précipitation: 0 mm    
Historical Graphs
 
 
Données statistiques pour Janvier 7, 2018
Heure Température Point de rosée Pression Vent Vitesse du vent Refales Humidité Pluie (taux horaire)
-17.8 °C -17.8 °C 0 hPa Calm     Humidity % 0 mm
00:02 -14.7 °C -15 °C 34371.3 hPa NNE 22 km/h 37.5 km/h 93 % 0 mm
00:07 -14.7 °C -15 °C 34371.3 hPa NE 26.7 km/h 40.7 km/h 93 % 0 mm
00:11 -14.7 °C -15 °C 34371.3 hPa ENE 19.6 km/h 40.7 km/h 92 % 0 mm
00:16 -14.7 °C -15 °C 34371.3 hPa NE 26.7 km/h 37 km/h 92 % 0 mm
00:23 -14.7 °C -15 °C 34371.3 hPa NNE 24.8 km/h 37 km/h 92 % 0 mm
00:28 -14.7 °C -15 °C 34405.1 hPa NNE 24.8 km/h 33.6 km/h 91 % 0 mm
00:32 -14.8 °C -15.6 °C 34405.1 hPa NE 24.8 km/h 39.9 km/h 91 % 0 mm
00:33 -14.8 °C -15.6 °C 34405.1 hPa NNE 27.2 km/h 39.9 km/h 91 % 0 mm
00:38 -14.8 °C -15.6 °C 34405.1 hPa NE 27.7 km/h 40.7 km/h 91 % 0 mm
00:40 -14.8 °C -15.6 °C 34405.1 hPa NE 33.6 km/h 40.7 km/h 91 % 0 mm
00:45 -14.8 °C -15.6 °C 34405.1 hPa NNE 26.2 km/h 39.9 km/h 91 % 0 mm
00:50 -14.8 °C -15.6 °C 34405.1 hPa NNE 24.3 km/h 40.7 km/h 91 % 0 mm
00:55 -14.8 °C -15.6 °C 34405.1 hPa North 26.2 km/h 44.6 km/h 91 % 0 mm
00:56 -14.8 °C -15.6 °C 34405.1 hPa NE 31.9 km/h 44.6 km/h 91 % 0 mm
00:58 -14.8 °C -15.6 °C 34405.1 hPa NE 45.9 km/h 45.9 km/h 91 % 0 mm
01:04 -14.8 °C -15.6 °C 34405.1 hPa NNE 37.5 km/h 45.9 km/h 91 % 0 mm
01:09 -14.8 °C -15.6 °C 34405.1 hPa NE 23.8 km/h 53.9 km/h 91 % 0 mm
01:14 -14.8 °C -15.6 °C 34405.1 hPa NE 27.2 km/h 53.9 km/h 92 % 0 mm
01:19 -14.8 °C -15.6 °C 34405.1 hPa NE 16.9 km/h 41.2 km/h 92 % 0 mm
01:22 -14.9 °C -15.6 °C 34405.1 hPa NE 27.7 km/h 42.2 km/h 92 % 0 mm
01:27 -14.9 °C -15.6 °C 34405.1 hPa NNE 25.4 km/h 42.2 km/h 92 % 0 mm
01:29 -14.9 °C -15.6 °C 34405.1 hPa NE 25.4 km/h 42.2 km/h 92 % 0 mm
01:34 -14.9 °C -15.6 °C 34405.1 hPa NNE 34.1 km/h 45.1 km/h 92 % 0 mm
01:37 -14.9 °C -15.6 °C 34405.1 hPa NE 39.4 km/h 45.1 km/h 92 % 0 mm
01:40 -14.9 °C -15.6 °C 34405.1 hPa NE 46.3 km/h 46.3 km/h 91 % 0 mm
01:45 -14.9 °C -15.6 °C 34405.1 hPa NNE 37.5 km/h 46.3 km/h 90 % 0 mm
01:47 -14.9 °C -15.6 °C 34405.1 hPa NNE 29 km/h 46.3 km/h 89 % 0 mm
01:53 -15 °C -16.1 °C 34405.1 hPa NE 39.4 km/h 43 km/h 88 % 0 mm
01:58 -15 °C -16.1 °C 34428.8 hPa NNE 31.9 km/h 43.5 km/h 88 % 0 mm
02:03 -15.1 °C -16.1 °C 34428.8 hPa NE 31.9 km/h 45.1 km/h 88 % 0 mm
02:08 -15.1 °C -16.1 °C 34428.8 hPa NE 25.4 km/h 45.1 km/h 88 % 0 mm
02:13 -15.1 °C -16.1 °C 34428.8 hPa NNE 27.7 km/h 45.9 km/h 87 % 0 mm
02:18 -15.1 °C -16.1 °C 34428.8 hPa NNE 24.8 km/h 45.9 km/h 86 % 0 mm
02:23 -15.2 °C -16.1 °C 34428.8 hPa NNE 28.5 km/h 45.1 km/h 87 % 0 mm
02:28 -15.2 °C -16.1 °C 34428.8 hPa NE 32.3 km/h 45.1 km/h 87 % 0 mm
02:30 -15.2 °C -16.1 °C 34428.8 hPa NNE 22.5 km/h 45.1 km/h 87 % 0 mm
02:35 -15.2 °C -16.1 °C 34428.8 hPa NE 27.2 km/h 45.9 km/h 87 % 0 mm
02:40 -15.3 °C -16.1 °C 34428.8 hPa NE 25.4 km/h 45.9 km/h 87 % 0 mm
02:46 -15.3 °C -16.1 °C 34428.8 hPa NE 35.2 km/h 41.7 km/h 87 % 0 mm
02:51 -15.4 °C -16.1 °C 34428.8 hPa NNE 33.2 km/h 41.7 km/h 88 % 0 mm
02:57 -15.4 °C -16.1 °C 34428.8 hPa NE 20.3 km/h 44.1 km/h 88 % 0 mm
03:02 -15.4 °C -16.1 °C 34428.8 hPa NE 31.9 km/h 44.1 km/h 88 % 0 mm
03:07 -15.4 °C -16.1 °C 34428.8 hPa NE 37.5 km/h 40.7 km/h 89 % 0 mm
03:12 -15.5 °C -16.1 °C 34428.8 hPa NE 38.3 km/h 45.9 km/h 90 % 0 mm
03:17 -15.5 °C -16.1 °C 34428.8 hPa NE 25.4 km/h 46.3 km/h 90 % 0 mm
03:22 -15.6 °C -16.1 °C 34428.8 hPa NNE 22.5 km/h 46.3 km/h 91 % 0 mm
03:23 -15.6 °C -16.1 °C 34428.8 hPa NE 37.5 km/h 46.3 km/h 91 % 0 mm
03:28 -15.6 °C -16.1 °C 34428.8 hPa NNE 31.9 km/h 39.4 km/h 92 % 0 mm
03:33 -15.6 °C -16.1 °C 34428.8 hPa NNW 31.9 km/h 45.1 km/h 93 % 0 mm
03:39 -15.7 °C -16.1 °C 34428.8 hPa NNE 22 km/h 45.1 km/h 93 % 0 mm
03:43 -15.7 °C -16.1 °C 34428.8 hPa NE 19.6 km/h 34.8 km/h 94 % 0 mm
03:48 -15.7 °C -16.1 °C 34428.8 hPa NNE 22 km/h 34.1 km/h 94 % 0 mm
03:50 -15.7 °C -16.1 °C 34428.8 hPa NNE 16.9 km/h 34.8 km/h 94 % 0 mm
03:55 -15.7 °C -16.1 °C 34428.8 hPa NNE 20.9 km/h 34.8 km/h 94 % 0 mm
04:01 -15.7 °C -16.1 °C 34428.8 hPa NE 25.4 km/h 34.8 km/h 95 % 0 mm
04:03 -15.7 °C -16.1 °C 34428.8 hPa NE 34.1 km/h 34.1 km/h 95 % 0 mm
04:08 -15.7 °C -16.1 °C 34428.8 hPa NNE 26.2 km/h 37.5 km/h 94 % 0 mm
04:13 -15.8 °C -16.1 °C 34428.8 hPa NE 25.4 km/h 37.5 km/h 94 % 0 mm
04:18 -15.8 °C -16.1 °C 34428.8 hPa NE 22 km/h 34.1 km/h 94 % 0 mm
04:24 -15.8 °C -16.1 °C 34428.8 hPa NNE 32.3 km/h 34.1 km/h 94 % 0 mm
04:29 -15.8 °C -16.1 °C 34476.3 hPa NNE 33.2 km/h 33.2 km/h 94 % 0 mm
04:35 -15.7 °C -16.1 °C 34476.3 hPa NE 32.3 km/h 37 km/h 93 % 0 mm
04:44 -15.7 °C -16.1 °C 34428.8 hPa NE 28.5 km/h 37.5 km/h 93 % 0 mm
04:49 -15.7 °C -16.1 °C 34428.8 hPa NE 35.2 km/h 41.7 km/h 93 % 0 mm
04:54 -15.7 °C -16.1 °C 34428.8 hPa NNE 35.2 km/h 41.7 km/h 92 % 0 mm
04:59 -15.7 °C -16.1 °C 34428.8 hPa NE 29 km/h 49.7 km/h 91 % 0 mm
05:04 -15.7 °C -16.1 °C 34428.8 hPa NE 26.7 km/h 49.7 km/h 91 % 0 mm
05:06 -15.7 °C -16.1 °C 34428.8 hPa NE 36.5 km/h 49.7 km/h 91 % 0 mm
05:11 -15.7 °C -16.1 °C 34476.3 hPa ENE 34.8 km/h 51.5 km/h 91 % 0 mm
05:12 -15.7 °C -16.1 °C 34476.3 hPa ENE 27.2 km/h 51.5 km/h 91 % 0 mm
05:17 -15.7 °C -16.1 °C 34476.3 hPa NE 26.7 km/h 48.1 km/h 91 % 0 mm
05:22 -15.7 °C -16.1 °C 34476.3 hPa NNE 27.2 km/h 48.1 km/h 91 % 0 mm
05:27 -15.8 °C -16.1 °C 34476.3 hPa NNE 39.9 km/h 45.1 km/h 92 % 0 mm
05:32 -15.8 °C -16.1 °C 34476.3 hPa NNE 25.4 km/h 50.5 km/h 92 % 0 mm
05:33 -15.8 °C -16.1 °C 34476.3 hPa NE 27.7 km/h 50.5 km/h 92 % 0 mm
05:34 -15.9 °C -16.7 °C 34476.3 hPa NE 28.5 km/h 50.5 km/h 92 % 0 mm
05:39 -15.9 °C -16.1 °C 34476.3 hPa NNE 25.4 km/h 50.5 km/h 93 % 0 mm
05:45 -15.9 °C -16.1 °C 34476.3 hPa NE 16.3 km/h 41.2 km/h 93 % 0 mm
05:50 -15.9 °C -16.1 °C 34476.3 hPa NE 27.2 km/h 46.8 km/h 93 % 0 mm
05:52 -15.9 °C -16.1 °C 34476.3 hPa NE 40.7 km/h 46.8 km/h 94 % 0 mm
05:57 -15.9 °C -16.1 °C 34476.3 hPa NE 28.5 km/h 57.3 km/h 94 % 0 mm
06:02 -15.9 °C -16.1 °C 34476.3 hPa NE 40.7 km/h 57.3 km/h 94 % 0 mm
06:07 -15.9 °C -16.1 °C 34476.3 hPa NE 58.6 km/h 58.6 km/h 94 % 0 mm
06:13 -15.9 °C -16.1 °C 34476.3 hPa NE 31.9 km/h 58.6 km/h 94 % 0 mm
06:18 -15.9 °C -16.1 °C 34476.3 hPa NNE 48.1 km/h 51.5 km/h 94 % 0 mm
06:23 -15.9 °C -16.1 °C 34476.3 hPa NE 33.2 km/h 57.3 km/h 94 % 0 mm
06:29 -15.9 °C -16.1 °C 34476.3 hPa NE 48.1 km/h 66.6 km/h 94 % 0 mm
06:34 -15.9 °C -16.1 °C 34476.3 hPa NE 43.5 km/h 66.6 km/h 94 % 0 mm
06:39 -15.9 °C -16.1 °C 34476.3 hPa NE 32.3 km/h 61.3 km/h 94 % 0 mm
06:44 -15.9 °C -16.1 °C 34476.3 hPa NE 49.7 km/h 59.5 km/h 94 % 0 mm
06:50 -15.9 °C -16.1 °C 34476.3 hPa NNE 39.4 km/h 57.9 km/h 94 % 0 mm
06:51 -15.9 °C -16.1 °C 34476.3 hPa NE 36 km/h 57.9 km/h 94 % 0 mm
06:56 -15.9 °C -16.1 °C 34496.6 hPa NE 26.7 km/h 51.5 km/h 94 % 0 mm
07:02 -15.9 °C -16.1 °C 34496.6 hPa NE 51 km/h 51 km/h 94 % 0 mm
07:07 -15.9 °C -16.1 °C 34496.6 hPa NE 39.9 km/h 51 km/h 94 % 0 mm
07:12 -15.9 °C -16.1 °C 34496.6 hPa NE 44.6 km/h 51.5 km/h 95 % 0 mm
07:16 -15.9 °C -16.1 °C 34496.6 hPa ENE 26.7 km/h 51.5 km/h 95 % 0 mm
07:21 -15.9 °C -16.1 °C 34496.6 hPa NE 34.8 km/h 51 km/h 95 % 0 mm
07:32 -15.8 °C -16.1 °C 34476.3 hPa NE 33.2 km/h 60.3 km/h 94 % 0 mm
07:37 -15.8 °C -16.1 °C 34476.3 hPa NE 38.3 km/h 60.3 km/h 94 % 0 mm
07:42 -15.8 °C -16.1 °C 34496.6 hPa NE 25.4 km/h 51.5 km/h 95 % 0 mm
07:44 -15.8 °C -16.1 °C 34496.6 hPa ENE 34.8 km/h 51.5 km/h 95 % 0 mm
07:49 -15.8 °C -16.1 °C 34496.6 hPa NE 31.9 km/h 51.5 km/h 94 % 0 mm
07:54 -15.8 °C -16.1 °C 34496.6 hPa NE 39.4 km/h 53.9 km/h 94 % 0 mm
07:59 -15.8 °C -16.1 °C 34533.8 hPa NE 33.6 km/h 53.9 km/h 94 % 0 mm
08:05 -15.8 °C -16.1 °C 34533.8 hPa ENE 32.3 km/h 50.5 km/h 94 % 0 mm
08:10 -15.8 °C -16.1 °C 34533.8 hPa North 33.2 km/h 61.3 km/h 94 % 0 mm
08:11 -15.8 °C -16.1 °C 34533.8 hPa NNE 45.1 km/h 61.3 km/h 94 % 0 mm
08:16 -15.8 °C -16.1 °C 34533.8 hPa NE 32.3 km/h 61.3 km/h 94 % 0 mm
08:21 -15.8 °C -16.1 °C 34533.8 hPa NE 32.3 km/h 51 km/h 94 % 0 mm
08:26 -15.8 °C -16.1 °C 34533.8 hPa NNE 27.7 km/h 45.1 km/h 94 % 0 mm
08:31 -15.8 °C -16.1 °C 34567.7 hPa ENE 32.3 km/h 45.1 km/h 94 % 0 mm
08:36 -15.8 °C -16.1 °C 34567.7 hPa NE 46.3 km/h 57.3 km/h 94 % 0 mm
08:41 -15.8 °C -16.1 °C 34567.7 hPa NE 39.4 km/h 58.6 km/h 93 % 0 mm
08:46 -15.8 °C -16.1 °C 34567.7 hPa NE 26.2 km/h 58.6 km/h 93 % 0 mm
08:50 -15.8 °C -16.1 °C 34567.7 hPa ENE 45.9 km/h 58.6 km/h 93 % 0 mm
08:55 -15.8 °C -16.1 °C 34567.7 hPa ENE 33.6 km/h 52.8 km/h 93 % 0 mm
09:00 -15.8 °C -16.1 °C 34567.7 hPa ENE 32.3 km/h 52.8 km/h 93 % 0 mm
09:05 -15.8 °C -16.1 °C 34567.7 hPa NE 26.7 km/h 46.3 km/h 93 % 0 mm
09:11 -15.8 °C -16.1 °C 34567.7 hPa NE 29.5 km/h 44.6 km/h 93 % 0 mm
09:16 -15.8 °C -16.1 °C 34567.7 hPa East 26.2 km/h 38.3 km/h 93 % 0 mm
09:21 -15.8 °C -16.1 °C 34567.7 hPa NNE 41.2 km/h 41.2 km/h 93 % 0 mm
09:24 -15.8 °C -16.1 °C 34567.7 hPa NE 33.6 km/h 44.6 km/h 93 % 0 mm
09:29 -15.8 °C -16.1 °C 34567.7 hPa NE 28.5 km/h 45.9 km/h 93 % 0 mm
09:32 -15.8 °C -16.1 °C 34567.7 hPa NE 45.9 km/h 45.9 km/h 92 % 0 mm
09:34 -15.8 °C -16.1 °C 34567.7 hPa NE 33.2 km/h 50.5 km/h 92 % 0 mm
09:39 -15.8 °C -16.1 °C 34567.7 hPa NE 34.1 km/h 59.1 km/h 91 % 0 mm
09:44 -15.8 °C -16.1 °C 34601.5 hPa NE 36.5 km/h 59.1 km/h 91 % 0 mm
09:49 -15.8 °C -16.1 °C 34601.5 hPa NE 36.5 km/h 48.1 km/h 91 % 0 mm
10:00 -15.8 °C -16.7 °C 34601.5 hPa ENE 33.2 km/h 60.3 km/h 90 % 0 mm
10:02 -15.8 °C -16.1 °C 34601.5 hPa ENE 29 km/h 60.3 km/h 91 % 0 mm
10:07 -15.8 °C -16.1 °C 34601.5 hPa NE 36 km/h 59.5 km/h 91 % 0 mm
10:12 -15.8 °C -16.1 °C 34601.5 hPa NE 27.2 km/h 49.2 km/h 92 % 0 mm
10:17 -15.8 °C -16.1 °C 34601.5 hPa NE 52.8 km/h 52.8 km/h 91 % 0 mm
10:22 -15.8 °C -16.1 °C 34601.5 hPa ENE 45.1 km/h 52.8 km/h 91 % 0 mm
10:24 -15.8 °C -16.7 °C 34601.5 hPa NE 36.5 km/h 52.8 km/h 90 % 0 mm
10:29 -15.8 °C -16.1 °C 34601.5 hPa NNE 38.3 km/h 50.5 km/h 91 % 0 mm
10:32 -15.8 °C -16.7 °C 34601.5 hPa NE 33.6 km/h 51 km/h 90 % 0 mm
10:37 -15.8 °C -16.7 °C 34601.5 hPa NE 28.5 km/h 57.9 km/h 89 % 0 mm
10:42 -15.8 °C -16.7 °C 34635.4 hPa NE 34.1 km/h 57.9 km/h 90 % 0 mm
10:45 -15.8 °C -16.7 °C 34635.4 hPa NE 39.9 km/h 57.9 km/h 89 % 0 mm
10:50 -15.8 °C -16.7 °C 34635.4 hPa ENE 44.6 km/h 55.7 km/h 89 % 0 mm
10:55 -15.8 °C -16.7 °C 34635.4 hPa NE 33.2 km/h 51 km/h 89 % 0 mm
11:00 -15.8 °C -16.7 °C 34635.4 hPa NE 44.1 km/h 48.1 km/h 90 % 0 mm
11:06 -15.8 °C -16.7 °C 34635.4 hPa ENE 26.2 km/h 45.9 km/h 90 % 0 mm
11:10 -15.8 °C -16.7 °C 34635.4 hPa ENE 33.2 km/h 57.9 km/h 90 % 0 mm
11:15 -15.8 °C -16.7 °C 34635.4 hPa ENE 34.1 km/h 57.9 km/h 90 % 0 mm
11:20 -15.8 °C -16.7 °C 34635.4 hPa NE 26.7 km/h 55.7 km/h 89 % 0 mm
11:22 -15.8 °C -16.7 °C 34635.4 hPa NE 33.2 km/h 51.5 km/h 89 % 0 mm
11:26 -15.8 °C -16.7 °C 34635.4 hPa NE 27.7 km/h 52.8 km/h 89 % 0 mm
11:27 -15.8 °C -16.7 °C 34635.4 hPa NE 34.1 km/h 52.8 km/h 89 % 0 mm
11:32 -15.8 °C -16.7 °C 34635.4 hPa NE 32.3 km/h 55.2 km/h 89 % 0 mm
11:34 -15.8 °C -16.7 °C 34635.4 hPa ENE 29 km/h 55.2 km/h 89 % 0 mm
11:39 -15.8 °C -16.7 °C 34635.4 hPa ENE 33.6 km/h 48.1 km/h 89 % 0 mm
11:41 -15.7 °C -16.7 °C 34635.4 hPa NE 51 km/h 51 km/h 89 % 0 mm
11:45 -15.7 °C -16.7 °C 34635.4 hPa NE 45.1 km/h 51 km/h 89 % 0 mm
11:50 -15.7 °C -16.7 °C 34635.4 hPa NE 36 km/h 51 km/h 88 % 0 mm
11:51 -15.7 °C -16.7 °C 34635.4 hPa NE 38.3 km/h 51 km/h 88 % 0 mm
11:55 -15.7 °C -16.7 °C 34635.4 hPa NE 38.3 km/h 53.3 km/h 88 % 0 mm
12:00 -15.7 °C -16.7 °C 34635.4 hPa ENE 45.1 km/h 57.9 km/h 87 % 0 mm
12:02 -15.7 °C -16.7 °C 34635.4 hPa NNE 43 km/h 57.9 km/h 87 % 0 mm
12:07 -15.7 °C -16.7 °C 34635.4 hPa NE 44.6 km/h 57.9 km/h 88 % 0 mm
12:12 -15.7 °C -16.7 °C 34601.5 hPa NE 32.3 km/h 51 km/h 87 % 0 mm
12:13 -15.7 °C -16.7 °C 34601.5 hPa NE 39.4 km/h 51 km/h 87 % 0 mm
12:19 -15.7 °C -16.7 °C 34601.5 hPa NNE 27.7 km/h 44.6 km/h 87 % 0 mm
12:20 -15.7 °C -16.7 °C 34601.5 hPa NE 41.2 km/h 44.6 km/h 87 % 0 mm
12:23 -15.7 °C -16.7 °C 34601.5 hPa East 28.5 km/h 51.5 km/h 87 % 0 mm
12:25 -15.7 °C -16.7 °C 34601.5 hPa NE 51.5 km/h 51.5 km/h 87 % 0 mm
12:30 -15.7 °C -16.7 °C 34601.5 hPa East 44.6 km/h 55.2 km/h 87 % 0 mm
12:37 -15.7 °C -16.7 °C 34601.5 hPa NE 24.3 km/h 55.2 km/h 87 % 0 mm
12:38 -15.7 °C -16.7 °C 34601.5 hPa NE 41.2 km/h 48.6 km/h 88 % 0 mm
12:44 -15.7 °C -16.7 °C 34601.5 hPa NNE 20.3 km/h 49.7 km/h 87 % 0 mm
12:48 -15.8 °C -16.7 °C 34601.5 hPa East 38.3 km/h 49.7 km/h 87 % 0 mm
12:53 -15.8 °C -16.7 °C 34601.5 hPa NE 46.3 km/h 46.3 km/h 87 % 0 mm
13:00 -15.8 °C -16.7 °C 34601.5 hPa NE 36.5 km/h 46.3 km/h 87 % 0 mm
13:01 -15.8 °C -16.7 °C 34601.5 hPa ENE 33.2 km/h 46.3 km/h 87 % 0 mm
13:06 -15.9 °C -17.2 °C 34601.5 hPa NE 36.5 km/h 51.5 km/h 86 % 0 mm
13:11 -15.9 °C -17.2 °C 34601.5 hPa ENE 36.5 km/h 51.5 km/h 86 % 0 mm
13:12 -15.9 °C -16.7 °C 34601.5 hPa NE 22.5 km/h 51.5 km/h 87 % 0 mm
13:17 -15.9 °C -16.7 °C 34601.5 hPa ENE 27.7 km/h 51 km/h 87 % 0 mm
13:21 -15.9 °C -16.7 °C 34601.5 hPa NE 43.5 km/h 48.6 km/h 87 % 0 mm
13:26 -15.9 °C -16.7 °C 34601.5 hPa NE 44.1 km/h 51.5 km/h 87 % 0 mm
13:31 -15.9 °C -16.7 °C 34601.5 hPa NE 31.9 km/h 52.8 km/h 87 % 0 mm
13:41 -15.9 °C -16.7 °C 34601.5 hPa NNE 33.2 km/h 50.5 km/h 87 % 0 mm
13:46 -15.9 °C -16.7 °C 34601.5 hPa NE 35.2 km/h 45.1 km/h 87 % 0 mm
13:50 -15.9 °C -16.7 °C 34601.5 hPa NE 37.5 km/h 45.1 km/h 87 % 0 mm
13:56 -15.9 °C -16.7 °C 34567.7 hPa NE 45.1 km/h 45.1 km/h 87 % 0 mm
13:58 -15.9 °C -16.7 °C 34567.7 hPa NE 31.9 km/h 45.1 km/h 87 % 0 mm
14:03 -15.9 °C -16.7 °C 34567.7 hPa ENE 35.2 km/h 45.1 km/h 87 % 0 mm
14:04 -15.9 °C -16.7 °C 34567.7 hPa NE 41.2 km/h 57.9 km/h 87 % 0 mm
14:09 -15.9 °C -16.7 °C 34567.7 hPa NE 29.5 km/h 57.9 km/h 87 % 0 mm
14:12 -15.9 °C -16.7 °C 34567.7 hPa NE 33.6 km/h 57.9 km/h 87 % 0 mm
14:17 -16 °C -16.7 °C 34567.7 hPa NE 41.2 km/h 60.8 km/h 87 % 0 mm
14:18 -16 °C -16.7 °C 34567.7 hPa NE 45.1 km/h 60.8 km/h 87 % 0 mm
14:23 -16 °C -16.7 °C 34567.7 hPa NE 51 km/h 62 km/h 87 % 0 mm
14:27 -16 °C -16.7 °C 34567.7 hPa NE 26.7 km/h 62 km/h 87 % 0 mm
14:32 -16 °C -16.7 °C 34567.7 hPa ENE 39.4 km/h 59.1 km/h 87 % 0 mm
14:33 -16 °C -16.7 °C 34567.7 hPa NE 53.9 km/h 59.1 km/h 87 % 0 mm
14:38 -16.1 °C -17.2 °C 34567.7 hPa ENE 36 km/h 62 km/h 86 % 0 mm
14:43 -16.1 °C -17.2 °C 34567.7 hPa NE 45.9 km/h 60.3 km/h 86 % 0 mm
14:48 -16 °C -17.2 °C 34567.7 hPa ENE 31.9 km/h 60.3 km/h 86 % 0 mm
14:53 -16 °C -17.2 °C 34567.7 hPa ENE 39.4 km/h 46.3 km/h 86 % 0 mm
14:58 -15.9 °C -17.2 °C 34567.7 hPa ENE 28.5 km/h 51.5 km/h 86 % 0 mm
15:02 -15.9 °C -17.2 °C 34567.7 hPa NNE 39.9 km/h 51.5 km/h 86 % 0 mm
15:07 -16 °C -17.2 °C 34567.7 hPa NE 26.2 km/h 44.6 km/h 86 % 0 mm
15:12 -16 °C -16.7 °C 34601.5 hPa NE 45.1 km/h 46.3 km/h 87 % 0 mm
15:14 -16 °C -17.2 °C 34601.5 hPa NNE 26.7 km/h 46.3 km/h 86 % 0 mm
15:19 -16 °C -16.7 °C 34601.5 hPa NE 16.9 km/h 46.3 km/h 87 % 0 mm
15:24 -16 °C -16.7 °C 34601.5 hPa ENE 33.2 km/h 38.3 km/h 88 % 0 mm
15:29 -16 °C -16.7 °C 34601.5 hPa ENE 37.5 km/h 38.3 km/h 87 % 0 mm
15:35 -16 °C -16.7 °C 34601.5 hPa NE 23.8 km/h 43 km/h 87 % 0 mm
15:40 -15.9 °C -16.7 °C 34601.5 hPa NE 26.2 km/h 43 km/h 88 % 0 mm
15:45 -15.9 °C -16.7 °C 34601.5 hPa NE 22 km/h 28.5 km/h 88 % 0 mm
15:50 -15.9 °C -16.7 °C 34601.5 hPa NNE 22 km/h 31.4 km/h 88 % 0 mm
15:53 -15.9 °C -16.7 °C 34601.5 hPa NE 22 km/h 31.4 km/h 88 % 0 mm
15:55 -15.9 °C -16.7 °C 34601.5 hPa NE 19.2 km/h 31.4 km/h 88 % 0 mm
16:00 -15.9 °C -16.7 °C 34601.5 hPa NE 29.5 km/h 33.2 km/h 88 % 0 mm
16:06 -15.9 °C -16.7 °C 34601.5 hPa ENE 26.7 km/h 33.2 km/h 88 % 0 mm
16:08 -15.9 °C -16.7 °C 34601.5 hPa ENE 23.8 km/h 33.2 km/h 88 % 0 mm
16:13 -15.9 °C -16.7 °C 34601.5 hPa ENE 22.5 km/h 27.7 km/h 88 % 0 mm
16:18 -16 °C -16.7 °C 34601.5 hPa NE 37.5 km/h 39.4 km/h 88 % 0 mm
16:24 -16 °C -16.7 °C 34601.5 hPa NE 27.7 km/h 39.4 km/h 88 % 0 mm
16:27 -15.9 °C -16.7 °C 34601.5 hPa NE 26.7 km/h 37.5 km/h 88 % 0 mm
16:32 -15.9 °C -16.7 °C 34601.5 hPa NNE 27.2 km/h 37.5 km/h 88 % 0 mm
16:37 -15.9 °C -16.7 °C 34601.5 hPa NNE 26.7 km/h 45.9 km/h 87 % 0 mm
16:42 -15.9 °C -16.7 °C 34601.5 hPa NE 15.6 km/h 45.9 km/h 87 % 0 mm
16:46 -15.9 °C -16.7 °C 34601.5 hPa ENE 32.3 km/h 41.2 km/h 88 % 0 mm
16:51 -16 °C -16.7 °C 34601.5 hPa NE 20.9 km/h 40.7 km/h 88 % 0 mm
16:56 -16 °C -16.7 °C 34601.5 hPa NE 22 km/h 44.1 km/h 87 % 0 mm
17:01 -16 °C -16.7 °C 34601.5 hPa NE 18.7 km/h 44.1 km/h 87 % 0 mm
17:05 -16.1 °C -17.2 °C 34601.5 hPa ENE 19.6 km/h 34.1 km/h 87 % 0 mm
17:11 -16.1 °C -17.2 °C 34601.5 hPa NE 32.3 km/h 45.9 km/h 87 % 0 mm
17:14 -16.1 °C -17.2 °C 34601.5 hPa NE 26.7 km/h 45.9 km/h 87 % 0 mm
17:19 -16.1 °C -17.2 °C 34601.5 hPa NE 33.2 km/h 45.9 km/h 87 % 0 mm
17:24 -16.1 °C -17.2 °C 34601.5 hPa NE 27.2 km/h 41.7 km/h 87 % 0 mm
17:25 -16.1 °C -17.2 °C 34601.5 hPa ENE 27.7 km/h 41.7 km/h 87 % 0 mm
17:30 -16.1 °C -17.2 °C 34601.5 hPa ENE 27.7 km/h 42.2 km/h 87 % 0 mm
17:35 -16.1 °C -17.2 °C 34601.5 hPa NE 26.7 km/h 45.9 km/h 86 % 0 mm
17:41 -16 °C -17.2 °C 34601.5 hPa ENE 26.7 km/h 45.9 km/h 86 % 0 mm
17:46 -16.1 °C -17.2 °C 34601.5 hPa ENE 26.7 km/h 45.9 km/h 86 % 0 mm
17:51 -16.1 °C -17.2 °C 34601.5 hPa NNE 29.5 km/h 43 km/h 86 % 0 mm
17:56 -16.1 °C -17.2 °C 34601.5 hPa NE 31.9 km/h 48.6 km/h 85 % 0 mm
18:01 -16.1 °C -17.2 °C 34601.5 hPa NE 27.7 km/h 48.6 km/h 85 % 0 mm
18:06 -16.1 °C -17.2 °C 34601.5 hPa NE 27.2 km/h 45.9 km/h 85 % 0 mm
18:11 -16.1 °C -17.2 °C 34601.5 hPa NE 22.5 km/h 45.9 km/h 85 % 0 mm
18:16 -16.1 °C -17.2 °C 34601.5 hPa ENE 38.3 km/h 44.1 km/h 85 % 0 mm
18:21 -16.2 °C -17.2 °C 34601.5 hPa NE 31.9 km/h 44.1 km/h 85 % 0 mm
18:25 -16.2 °C -17.2 °C 34601.5 hPa NE 32.3 km/h 43.5 km/h 85 % 0 mm
18:30 -16.2 °C -17.2 °C 34601.5 hPa ENE 39.4 km/h 55.7 km/h 85 % 0 mm
18:35 -16.3 °C -17.2 °C 34601.5 hPa NNE 26.2 km/h 55.7 km/h 84 % 0 mm
18:40 -16.3 °C -17.2 °C 34601.5 hPa ENE 34.1 km/h 45.1 km/h 84 % 0 mm
18:45 -16.3 °C -17.2 °C 34601.5 hPa ENE 27.7 km/h 45.9 km/h 84 % 0 mm
18:49 -16.3 °C -17.2 °C 34601.5 hPa ENE 31.4 km/h 45.9 km/h 85 % 0 mm
18:54 -16.3 °C -17.2 °C 34601.5 hPa NE 34.8 km/h 44.6 km/h 84 % 0 mm
18:59 -16.3 °C -17.2 °C 34601.5 hPa NE 37.5 km/h 44.6 km/h 84 % 0 mm
19:05 -16.4 °C -17.2 °C 34601.5 hPa ENE 28.5 km/h 44.6 km/h 84 % 0 mm
19:09 -16.4 °C -17.2 °C 34601.5 hPa NE 26.2 km/h 45.9 km/h 84 % 0 mm
19:14 -16.4 °C -17.2 °C 34635.4 hPa NE 34.1 km/h 63.2 km/h 84 % 0 mm
19:19 -16.4 °C -17.2 °C 34635.4 hPa ENE 31.9 km/h 63.2 km/h 84 % 0 mm
19:24 -16.4 °C -17.8 °C 34635.4 hPa NE 23.8 km/h 52 km/h 84 % 0 mm
19:29 -16.4 °C -17.8 °C 34635.4 hPa NE 26.2 km/h 45.1 km/h 84 % 0 mm
19:34 -16.4 °C -17.8 °C 34635.4 hPa ENE 26.2 km/h 45.9 km/h 84 % 0 mm
19:39 -16.4 °C -17.8 °C 34635.4 hPa NE 24.3 km/h 50.5 km/h 84 % 0 mm
19:44 -16.4 °C -17.8 °C 34635.4 hPa ENE 20.9 km/h 50.5 km/h 84 % 0 mm
19:49 -16.5 °C -17.8 °C 34635.4 hPa ENE 33.2 km/h 43 km/h 84 % 0 mm
19:54 -16.5 °C -17.8 °C 34635.4 hPa ENE 31.9 km/h 44.1 km/h 83 % 0 mm
20:02 -16.6 °C -17.8 °C 34635.4 hPa ENE 26.2 km/h 38.3 km/h 84 % 0 mm
20:07 -16.6 °C -17.8 °C 34635.4 hPa NE 31.9 km/h 40.7 km/h 84 % 0 mm
20:12 -16.6 °C -17.8 °C 34635.4 hPa NE 27.2 km/h 41.2 km/h 84 % 0 mm
20:17 -16.6 °C -17.8 °C 34635.4 hPa ENE 19.2 km/h 41.2 km/h 84 % 0 mm
20:23 -16.6 °C -17.8 °C 34635.4 hPa ENE 26.7 km/h 39.4 km/h 84 % 0 mm
20:24 -16.6 °C -17.8 °C 34635.4 hPa NE 35.2 km/h 39.9 km/h 84 % 0 mm
20:29 -16.6 °C -17.8 °C 34601.5 hPa NE 32.3 km/h 51 km/h 84 % 0 mm
20:35 -16.6 °C -17.8 °C 34601.5 hPa NE 26.2 km/h 51 km/h 84 % 0 mm
20:40 -16.6 °C -17.8 °C 34601.5 hPa ENE 33.2 km/h 41.7 km/h 84 % 0 mm
20:41 -16.6 °C -17.8 °C 34635.4 hPa NE 28.5 km/h 41.7 km/h 84 % 0 mm
20:46 -16.6 °C -17.8 °C 34635.4 hPa NE 39.9 km/h 41.7 km/h 84 % 0 mm
20:51 -16.6 °C -17.8 °C 34635.4 hPa NE 27.2 km/h 39.9 km/h 84 % 0 mm
20:56 -16.6 °C -17.8 °C 34635.4 hPa East 34.1 km/h 43 km/h 84 % 0 mm
21:01 -16.6 °C -17.8 °C 34635.4 hPa NNE 27.2 km/h 43 km/h 85 % 0 mm
21:04 -16.6 °C -17.8 °C 34635.4 hPa ENE 20.3 km/h 43 km/h 85 % 0 mm
21:09 -16.6 °C -17.8 °C 34635.4 hPa NE 31.4 km/h 44.1 km/h 85 % 0 mm
21:14 -16.6 °C -17.8 °C 34635.4 hPa ENE 27.2 km/h 44.1 km/h 84 % 0 mm
21:19 -16.6 °C -17.8 °C 34635.4 hPa NE 27.2 km/h 42.2 km/h 84 % 0 mm
21:24 -16.6 °C -17.8 °C 34635.4 hPa ENE 27.2 km/h 42.2 km/h 85 % 0 mm
21:29 -16.6 °C -17.8 °C 34669.3 hPa ENE 24.8 km/h 34.1 km/h 85 % 0 mm
21:35 -16.6 °C -17.8 °C 34669.3 hPa ENE 27.7 km/h 39.9 km/h 85 % 0 mm
21:40 -16.6 °C -17.8 °C 34669.3 hPa ENE 27.7 km/h 39.9 km/h 85 % 0 mm
21:45 -16.6 °C -17.8 °C 34635.4 hPa NE 25.4 km/h 44.1 km/h 85 % 0 mm
21:52 -16.7 °C -17.8 °C 34635.4 hPa ENE 29.5 km/h 43.5 km/h 85 % 0 mm
21:58 -16.7 °C -17.8 °C 34635.4 hPa NE 27.2 km/h 53.9 km/h 86 % 0 mm
22:03 -16.7 °C -17.8 °C 34635.4 hPa NE 32.3 km/h 53.9 km/h 86 % 0 mm
22:08 -16.7 °C -17.8 °C 34635.4 hPa NE 25.4 km/h 35.2 km/h 86 % 0 mm
22:13 -16.7 °C -17.8 °C 34635.4 hPa NE 28.5 km/h 34.1 km/h 86 % 0 mm
22:16 -16.7 °C -17.8 °C 34635.4 hPa ENE 31.4 km/h 34.1 km/h 86 % 0 mm
22:21 -16.7 °C -17.2 °C 34635.4 hPa ENE 33.6 km/h 34.1 km/h 87 % 0 mm
22:26 -16.7 °C -17.2 °C 34635.4 hPa NE 34.1 km/h 38.3 km/h 87 % 0 mm
22:30 -16.7 °C -17.2 °C 34635.4 hPa NE 33.6 km/h 45.9 km/h 87 % 0 mm
22:35 -16.6 °C -17.2 °C 34635.4 hPa ENE 24.8 km/h 45.9 km/h 87 % 0 mm
22:40 -16.6 °C -17.2 °C 34635.4 hPa NE 20.9 km/h 39.4 km/h 87 % 0 mm
22:50 -16.6 °C -17.2 °C 34635.4 hPa NE 27.7 km/h 37.5 km/h 87 % 0 mm
22:55 -16.6 °C -17.2 °C 34635.4 hPa ENE 24.8 km/h 37.5 km/h 88 % 0 mm
23:01 -16.6 °C -17.2 °C 34635.4 hPa NE 26.2 km/h 37.5 km/h 88 % 0 mm
23:06 -16.6 °C -17.2 °C 34635.4 hPa NE 26.7 km/h 37.5 km/h 88 % 0 mm
23:11 -16.6 °C -17.2 °C 34635.4 hPa NE 29 km/h 38.3 km/h 88 % 0 mm
23:16 -16.6 °C -17.2 °C 34635.4 hPa ENE 22.5 km/h 38.3 km/h 88 % 0 mm
23:20 -16.6 °C -17.2 °C 34635.4 hPa NE 22.5 km/h 50.5 km/h 88 % 0 mm
23:25 -16.6 °C -17.2 °C 34635.4 hPa NE 22 km/h 50.5 km/h 88 % 0 mm
23:31 -16.6 °C -17.2 °C 34635.4 hPa NE 22 km/h 50.5 km/h 88 % 0 mm
23:36 -16.6 °C -17.2 °C 34635.4 hPa NE 22 km/h 50.5 km/h 88 % 0 mm
23:38 -16.6 °C -17.2 °C 34635.4 hPa NE 22 km/h 50.5 km/h 88 % 0 mm
23:43 -16.6 °C -17.2 °C 34635.4 hPa NE 22 km/h 50.5 km/h 88 % 0 mm
23:48 -16.6 °C -17.2 °C 34635.4 hPa NE 22 km/h 50.5 km/h 88 % 0 mm
23:53 -16.6 °C -17.2 °C 34635.4 hPa NE 22 km/h 50.5 km/h 88 % 0 mm
23:58 -16.6 °C -17.2 °C 34635.4 hPa NE 22 km/h 50.5 km/h 88 % 0 mm
Le Gheer Warneton
Courtoisie de Weather Underground - 2.5 mb

Mise a jour : 24/02/2018 15:18:11
Généré par Cumulus 1.9.4 (1099)